Tracking 23885 objects as of 28-Nov-2021
HD Live streaming from Space Station
objects crossing your sky now

SPACEBEE-54

Track SPACEBEE-54 now!
10-day predictions


NORAD ID: 47460
Int'l Code: 2021-006AZ
Perigee: 521.4 km
Apogee: 534.6 km
Inclination: 97.5 °
Period: 95.0 minutes
Semi major axis: 6899 km
RCS: Unknown
Launch date: January 24, 2021
Source: United States (US)
Launch site: ()
aabbcc
Your satellite tracking list
Your tracking list is empty




NASA's NSSDC Master Catalog

Two Line Element Set (TLE):
1 47460U 21006AZ  21331.87895405  .00004972  00000-0  26932-3 0  9993
2 47460  97.4701  30.2509 0009545 254.7288 105.2890 15.15031643 46788
Source of the keplerian elements: AFSPC